Regional Weather Roundup
Issued by NWS

Home | Current Version | Previous Version | Text Only | Print | Product List | Glossary Off
Versions: 1 2 3 4 5 6 7 8 9 10 11 12 13 14 15 16 17 18 19 20 21 22 23 24 25 26 27 28 29 30 31 32 33 34 35 36 37 38 39 40 41 42 43 44 45 46 47 48 49 50

000
ASUS43 KLOT 291103
RWRIL

ILLINOIS REGIONAL WEATHER ROUNDUP
NATIONAL WEATHER SERVICE CHICAGO/ROMEOVILLE IL
600 AM CDT WED MAR 29 2017

NOTE: "FAIR" INDICATES FEW OR NO CLOUDS BELOW 12,000 FEET WITH NO
SIGNIFICANT WEATHER AND/OR OBSTRUCTIONS TO VISIBILITY.

* THESE STATIONS ARE NOT UNDER NWS QUALITY CONTROL. THEY ALSO MAY NOT
  REPORT WEATHER SUCH AS PRECIPITATION OR FOG.

ILZ001-002-007-009-015-016-024-291200-
NORTHWEST ILLINOIS

CITY           SKY/WX    TMP DP  RH WIND       PRES   REMARKS
MOLINE         CLOUDY    44  40  85 E14       30.14F
STERLING*      CLOUDY    37  37 100 E13       30.22R FOG     WCI  29
SAVANNA*       MOCLDY    38  36  92 E5        30.21R WCI  35
$$

ILZ003-004-008-010-011-017-018-291200-
NORTH CENTRAL ILLINOIS

CITY           SKY/WX    TMP DP  RH WIND       PRES   REMARKS
ROCKFORD       FOG       36  35  96 E7        30.24R VSB 1   WCI  30
FREEPORT*      FOG       34  33  99 E9        30.23S VSB 1/4 WCI  26
ROCHELLE*      CLOUDY    37  36  99 E12       30.22R FOG     WCI  29
DE KALB*       CLOUDY    36  36  99 E7        30.22S FOG     WCI  30
PERU*          CLOUDY    39  37  92 E10       30.21R FOG     WCI  32
$$

ILZ005-006-012>014-019>023-291200-
NORTHEAST ILLINOIS

CITY           SKY/WX    TMP DP  RH WIND       PRES   REMARKS
CHICAGO-OHARE  FOG       35  33  92 NE8       30.23R VSB 3/4 WCI  29
CHICAGO-MIDWAY CLOUDY    37  36  96 NE9       30.23R FOG     WCI  30
AURORA         CLOUDY    38  36  92 NE12      30.22R FOG     WCI  30
LANSING*       FOG       35  35 100 NE6       30.22R VSB 1/2 WCI  30
JOLIET*        CLOUDY    38  37  98 NE7       30.22R FOG     WCI  32
WAUKEGAN       FOG       31  31 100 N5        30.24R VSB 1/4 WCI  26
DUPAGE AIRPORT CLOUDY    35  35 100 E10       30.22R FOG     WCI  27
KANKAKEE*      CLOUDY    37  36  93 NE7       30.21R FOG     WCI  32
WHEELING       FOG       33  33 100 NE3       30.25R VSB 3/4
MORRIS*        CLOUDY    38  37  94 E6        30.20S FOG     WCI  33
ROMEOVILLE*    CLOUDY    36  36 100 E8        30.22R FOG     WCI  29
NORTHERLY ISL    N/A     34  33  96 MISG        N/A
$$

LMZ740>746-291200-
SOUTHERN LAKE MICHIGAN

STATION/POSITION SKY/WX   TEMP    WIND        PRES    VSBY  WAVE
                          AIR SEA DIR/SP/G                  HT/PER
                          (F)     (DEG/KT/KT) (MB)    (MI)  (FT/S)
HARRISON CRIB              34      20/  7/  7   N/A
BURNHAM HARBOR             34      10/  7/ 10   N/A
CALUMET HARBOR             34      20/  6/  8 1023.1
BURNS HARBOR               36      70/  8/ 11 1024.0R
MICHIGAN CITY              37      50/  5/  6   N/A
$$

ILZ025>027-034>036-040-047-049-050-058-095>099-291200-
WEST-CENTRAL ILLINOIS

CITY           SKY/WX    TMP DP  RH WIND       PRES   REMARKS
QUINCY         CLOUDY    44  40  85 E18       30.02F
GALESBURG*     CLOUDY    42  42 100 E10       30.12R FOG
MACOMB*        CLOUDY    41  40  97 E13       30.12F FOG
JACKSONVILLE*  CLOUDY    43  40  91 E14       30.09S
PITTSFIELD*    CLOUDY    44  42  90 NE14G21   30.05F
$$

ILZ028>032-037-038-041>044-048-051>054-059>061-291200-
CENTRAL ILLINOIS

CITY           SKY/WX    TMP DP  RH WIND       PRES   REMARKS
PONTIAC        CLOUDY    42  42  98 NE12      30.20R
BLOOMINGTON    CLOUDY    43  42  97 E15       30.15S FOG
DECATUR        CLOUDY    46  42  86 E12       30.11F
PEORIA         CLOUDY    44  43  96 E12       30.14S FOG
LACON*         CLOUDY    42  41  97 E10G16    30.16F FOG
LINCOLN*       CLOUDY    46  44  95 E7        30.12F
SPRINGFIELD    CLOUDY    46  41  82 E8        30.11F
TAYLORVILLE    NOT AVBL
$$

ILZ033-039-045-046-055>057-062-063-291200-
EAST-CENTRAL ILLINOIS

CITY           SKY/WX    TMP DP  RH WIND       PRES   REMARKS
CHAMPAIGN      CLOUDY    47  43  86 NE14      30.14R
RANTOUL*       CLOUDY    47  45  91 E10       30.16R
MATTOON        CLEAR     43  43 100 NE8       30.11R
PARIS*         CLOUDY    47  46  94 NE8       30.14R
$$

ILZ079-100>102-291200-
SOUTHWEST ILLINOIS

CITY           SKY/WX    TMP DP  RH WIND       PRES   REMARKS
ALTON          MOCLDY    45  42  87 NE10G16   30.05F
BELLEVILLE     CLOUDY    45  45  99 NE7       30.03F
CAHOKIA*       CLOUDY    47  42  83 E9        30.04S
SPARTA*        CLOUDY    46  44  94 E7        30.04S
$$

ILZ064>066-069>071-074>076-080>082-084>086-088>090-092>094-291200-
SOUTH-CENTRAL ILLINOIS

CITY           SKY/WX    TMP DP  RH WIND       PRES   REMARKS
CARBONDALE     CLOUDY    49  48  97 E7        30.02F
CAIRO*         MOCLDY    52  50  93 E10       30.00S
EFFINGHAM*     CLOUDY    43  43 100 NE5       30.11S FOG
MARION         CLOUDY    50  50 100 NE7       30.04S
MT. VERNON     CLOUDY    47  45  93 NE10      30.06S
CENTRALIA*     CLOUDY    47  46  95 E8        30.05F
SALEM*         CLOUDY    48  44  85 E7        30.07S
METROPOLIS*    CLEAR     52  50  92 E5        30.02S
$$

ILZ067-068-072-073-078-083-087-091-291200-
SOUTHEAST ILLINOIS

CITY           SKY/WX    TMP DP  RH WIND       PRES   REMARKS
LAWRENCEVILLE  CLEAR     47  45  93 NE9       30.09F
FLORA*         CLEAR     47  44  89 NE7       30.09R
FAIRFIELD*     MOCLDY    49  47  93 NE6       30.06S
HARRISBURG*    CLOUDY    52  50  92 E8        30.05S
ROBINSON*      CLEAR     44  43  95 NE7       30.11F
CARMI*         CLEAR     49  47  93 E5        30.06R
$$

ABBREVIATIONS USED IN REMARKS
   TC - TEMPERATURE IN CELSIUS
  WCI - WIND CHILL INDEX
   HX - HEAT INDEX
  VSB - VISIBILITY
$$




USA.gov is the U.S. government's official web portal to all federal, state and local government web resources and services.